Weather History for KMKE - August, 2013

Change the Weather History Date:

Thursday, August 29, 2013

  Actual Average Record
Temperature  
Mean Temperature 76 °F 69 °F  
Max Temperature 84 °F 77 °F 96 °F (1973)
Min Temperature 67 °F 61 °F 44 °F (1965)
Degree Days  
Heating Degree Days 0 1  
Month to date heating degree days 8 8  
Since 1 June heating degree days 109 103  
Since 1 July heating degree days 22 19  
Cooling Degree Days 11 5  
Month to date cooling degree days 176 184  
Year to date cooling degree days 555 556  
Since 1 June cooling degree days 516 526  
Growing Degree Days 25 (Base 50)    
Moisture  
Dew Point 68 °F    
Average Humidity 82    
Maximum Humidity 100    
Minimum Humidity 63    
Precipitation  
Precipitation 0.00 in 0.12 in 2.71 in (1876)
Month to date precipitation 3.27 3.73  
Year to date precipitation 30.13 23.94  
Snow  
Snow 0.00 in 0.00 in 0.00 in ()
Month to date snowfall 0.0 0.0  
Since 1 June snowfall 0.0 0.0  
Since 1 July snowfall 0.0 0.0  
Snow Depth 0.00 in    
Sea Level Pressure  
Sea Level Pressure 30.03 in    
Wind  
Wind Speed 5 mph (SE)    
Max Wind Speed 13 mph    
Max Gust Speed 15 mph    
Visibility 10 miles    
Events      
T = Trace of Precipitation, MM = Missing Value Source: NWS Daily Summary

Daily Weather History Graph

Daily Weather History Graph

Search for Another Location

Airport or City:

Trip Planner

Search our weather history database for the weather conditions in past years. The results will help you decide how hot, cold, wet, or windy it might be!

Date:

Astronomy

Aug. 29, 2013 Rise Set
Actual Time 6:13 AM CDT 7:30 PM CDT
Civil Twilight 5:43 AM CDT 8:00 PM CDT
Nautical Twilight 5:08 AM CDT 8:35 PM CDT
Astronomical Twilight 4:30 AM CDT 9:12 PM CDT
Moon 12:00 AM CDT (8/29) 3:04 PM CDT (8/29)
Length of Visible Light 14h 16m
Length of Day
13h 17m
Last Quarter, 38% of the Moon is Illuminated
Aug 29
Last Quarter
Sep 5
New
Sep 12
First Quarter
Sep 19
Full
Sep 26
Last Quarter

Hourly Weather History & Observations

Time (CDT) Temp. Heat Index Dew Point Humidity Pressure Visibility Wind Dir Wind Speed Gust Speed Precip Events Conditions
12:52 AM 71.1 °F - 66.9 °F 87% 30.04 in 10.0 mi Calm Calm - N/A   Partly Cloudy
1:52 AM 71.1 °F - 66.9 °F 87% 30.03 in 10.0 mi Calm Calm - N/A   Scattered Clouds
2:52 AM 70.0 °F - 66.9 °F 90% 30.04 in 10.0 mi Calm Calm - N/A   Mostly Cloudy
3:52 AM 69.1 °F - 66.0 °F 90% 30.03 in 10.0 mi Calm Calm - N/A   Partly Cloudy
4:52 AM 68.0 °F - 66.0 °F 93% 30.04 in 10.0 mi Calm Calm - N/A   Partly Cloudy
5:52 AM 66.9 °F - 66.0 °F 97% 30.05 in 10.0 mi Calm Calm - N/A   Clear
6:52 AM 68.0 °F - 66.0 °F 93% 30.07 in 9.0 mi Calm Calm - N/A   Partly Cloudy
7:52 AM 73.9 °F - 66.9 °F 79% 30.07 in 9.0 mi Calm Calm - N/A   Partly Cloudy
8:52 AM 75.9 °F - 66.9 °F 74% 30.09 in 10.0 mi NE 5.8 mph - N/A   Partly Cloudy
9:52 AM 78.1 °F - 69.1 °F 74% 30.08 in 10.0 mi Calm Calm - N/A   Partly Cloudy
10:52 AM 80.1 °F 82.9 °F 69.1 °F 69% 30.08 in 10.0 mi ENE 4.6 mph - N/A   Partly Cloudy
11:52 AM 80.1 °F 82.9 °F 69.1 °F 69% 30.08 in 10.0 mi East 5.8 mph - N/A   Scattered Clouds
12:52 PM 82.0 °F 85.5 °F 69.1 °F 65% 30.06 in 10.0 mi ESE 6.9 mph - N/A   Scattered Clouds
1:52 PM 82.9 °F 87.0 °F 70.0 °F 65% 30.05 in 10.0 mi ESE 9.2 mph - N/A   Scattered Clouds
2:52 PM 82.0 °F 85.9 °F 70.0 °F 67% 30.03 in 10.0 mi ESE 11.5 mph - N/A   Scattered Clouds
3:52 PM 82.9 °F 86.5 °F 69.1 °F 63% 30.03 in 10.0 mi ESE 9.2 mph - N/A   Scattered Clouds
4:52 PM 82.0 °F 84.9 °F 68.0 °F 62% 30.01 in 10.0 mi SE 10.4 mph - N/A   Scattered Clouds
5:52 PM 80.1 °F 82.7 °F 68.0 °F 67% 30.01 in 10.0 mi SE 8.1 mph - N/A   Clear
6:52 PM 77.0 °F - 68.0 °F 74% 30.00 in 10.0 mi SE 10.4 mph - N/A   Clear
7:52 PM 75.0 °F - 66.9 °F 76% 29.99 in 10.0 mi SSE 6.9 mph - N/A   Clear
8:52 PM 73.9 °F - 66.9 °F 79% 29.99 in 10.0 mi SE 6.9 mph - N/A   Clear
9:52 PM 73.9 °F - 66.0 °F 76% 29.98 in 10.0 mi South 4.6 mph - N/A   Clear
10:52 PM 72.0 °F - 66.9 °F 84% 29.98 in 10.0 mi SW 5.8 mph - N/A   Clear
11:52 PM 72.0 °F - 66.9 °F 84% 29.97 in 9.0 mi SSW 5.8 mph - N/A   Clear